sat.trackr.live / text

‹ back to catalog

PIESAT C

NORAD 56155 · 2023-047C

PAYLOAD ACTIVE UNKNOWN

§ Identity

Operator
Country
PRC
Launch date
2023-03-30
Launch site
TAISC
Launch vehicle
Mass (kg)
RCS (m²)

External: N2YO · Heavens-Above · Gunter

§ Orbital elements

Epoch: 2026-05-24T11:57:47.801952Z

Period
95.09 min
Inclination
97.5017°
Eccentricity
0.0001645
Mean motion
15.14305980 rev/d
Perigee alt
522.0 km
Apogee alt
524.2 km
Semi-major
6,901.2 km
B*
6.7370e-5
RAAN
331.9849°
Arg perigee
118.2524°
Mean anomaly
241.8874°
Rev number
17,421

§ Raw data

PIESAT C1 56155U 23047C   26144.49846993  .00001168  00000+0  67370-4 0  99992 56155  97.5017 331.9849 0001645 118.2524 241.8874 15.14305980174214

JSON: /api/v1/satellites/56155 · /tle

For live sub-satellite position, see the globe view (requires WebGL).

§ Visibility from observer

Set your observer location to see the next 7 days of passes ≥ 10°. The values pass through the URL so the page stays shareable.

No JS? Fill the form by hand. The geolocation button needs JavaScript.